EW4785 Weather Reports


Display with metric or nautical units.
time (UTC)temp
F
wind
direction
speed
MPH
gust
MPH
rain 1hr
in
rain 24hr
in
rain mn
in
humidity
%
barometer
mb
20260904101603 73 179 0.0 2.0 0.00 0.00 0.00 94 1015.6
20260904100055 73 179 0.0 3.0 0.00 0.00 0.00 94 1015.6
20260904094554 73 179 0.0 1.0 0.00 0.00 0.00 94 1015.6
20260904093054 73 179 0.0 1.0 0.00 0.00 0.00 93 1015.5
20260904091552 74 179 0.0 2.0 0.00 0.00 0.00 93 1015.3
20260904090051 74 179 0.0 2.0 0.00 0.00 0.00 93 1015.2
20260904084550 74 179 0.0 2.0 0.00 0.00 0.00 92 1015.1
20260904083055 74 179 0.0 1.0 0.00 0.00 0.00 92 1015.0
20260904081548 75 179 0.0 2.0 0.00 0.00 0.00 91 1014.7
20260904080045 75 179 0.0 2.0 0.00 0.00 0.00 91 1014.8
20260904074554 75 179 0.0 2.0 0.00 0.00 0.00 91 1014.9
20260904073043 75 179 0.0 2.0 0.00 0.00 0.00 91 1015.0
20260904071539 75 179 0.0 2.0 0.00 0.00 0.00 91 1015.0
20260904070039 75 179 0.0 2.0 0.00 0.00 0.00 91 1015.2
20260904064538 76 179 0.0 2.0 0.00 0.00 0.00 91 1015.3
20260904063046 76 179 0.0 2.0 0.00 0.00 0.00 91 1015.6
20260904061535 76 179 0.0 2.0 0.00 0.00 0.00 90 1015.8
20260904060041 76 179 0.0 2.0 0.00 0.00 0.00 90 1016.1
20260904054528 77 179 0.0 1.0 0.00 0.00 0.00 89 1016.3
20260904053031 77 179 0.0 2.0 0.00 0.00 0.00 89 1016.4
20260904051522 77 179 0.0 2.0 0.00 0.00 0.00 88 1016.5
20260904050021 78 179 0.0 2.0 0.00 0.00 0.00 88 1016.6
20260904044536 78 179 0.0 3.0 0.00 0.00 0.00 87 1016.5
20260904043019 78 179 0.0 2.0 0.00 0.00 0.00 87 1016.5
20260904041516 79 179 0.0 2.0 0.00 0.00 0.00 87 1016.4
20260904040013 79 184 0.0 4.0 0.00 0.00 0.00 87 1016.2
20260904034512 79 197 1.0 3.0 0.00 0.00 0.00 87 1016.2
20260904033012 78 197 0.0 0.0 0.00 0.00 0.00 87 1016.3
20260904031511 79 197 0.0 0.0 0.00 0.00 0.00 87 1016.2
20260904030011 79 197 0.0 0.0 0.00 0.00 0.00 87 1016.2
20260904024511 79 197 0.0 0.0 0.00 0.00 0.00 86 1016.3
20260904023011 80 197 0.0 0.0 0.00 0.00 0.00 86 1016.2
20260904021516 80 197 0.0 0.0 0.00 0.00 0.00 86 1016.4
20260904020010 80 197 0.0 0.0 0.00 0.00 0.00 85 1016.3
20260904014518 81 197 0.0 0.0 0.00 0.00 0.00 85 1016.1
20260904013008 81 197 0.0 0.0 0.00 0.00 0.00 84 1016.1
20260904011520 81 197 0.0 1.0 0.00 0.00 0.00 83 1015.6
20260904010107 81 197 0.0 2.0 0.00 0.00 0.00 83 1015.5
20260904004508 81 197 0.0 2.0 0.00 0.00 0.00 85 1015.5
20260904003008 81 197 0.0 0.0 0.00 0.00 0.00 84 1015.3
20260904001505 83 197 0.0 0.0 0.00 0.00 0.00 81 1015.1
20260904000011 84 197 0.0 0.0 0.00 0.00 0.00 79 1015.0
20260903234505 86 197 0.0 0.0 0.00 0.00 0.00 78 1014.8
20260903233105 87 197 0.0 0.0 0.00 0.00 0.00 75 1014.6
20260903231503 89 197 0.0 0.0 0.00 0.00 0.00 72 1014.6
20260903230002 91 197 0.0 0.0 0.00 0.00 0.00 68 1014.7
20260903224501 92 197 0.0 0.0 0.00 0.00 0.00 66 1014.5
20260903223002 92 197 0.0 2.0 0.00 0.00 0.00 62 1014.5
20260903221559 93 197 0.0 4.0 0.00 0.00 0.00 61 1014.8
20260903220119 93 178 0.0 3.0 0.00 0.00 0.00 60 1014.8
20260903214559 94 185 1.0 3.0 0.00 0.00 0.00 57 1014.9
20260903213100 94 185 0.0 5.0 0.00 0.00 0.00 56 1014.9
20260903211617 94 178 2.0 5.0 0.00 0.00 0.00 55 1015.1
20260903210059 95 171 1.0 5.0 0.00 0.00 0.00 53 1015.0
20260903204555 95 218 0.0 3.0 0.00 0.00 0.00 52 1015.0
20260903203054 95 192 1.0 4.0 0.00 0.00 0.00 57 1015.2
20260903201552 95 105 0.0 4.0 0.00 0.00 0.00 51 1015.4
20260903200051 95 182 1.0 5.0 0.00 0.00 0.00 56 1015.5
20260903194548 95 229 1.0 3.0 0.00 0.00 0.00 54 1015.7
20260903193046 95 259 0.0 5.0 0.00 0.00 0.00 54 1015.7
20260903191544 95 193 0.0 4.0 0.00 0.00 0.00 53 1015.8
20260903190044 95 185 2.0 5.0 0.00 0.00 0.00 53 1016.0
20260903184543 95 200 0.0 4.0 0.00 0.00 0.00 52 1016.1
20260903183042 96 190 0.0 3.0 0.00 0.00 0.00 53 1016.2
20260903181541 96 190 0.0 3.0 0.00 0.00 0.00 56 1016.3
20260903180041 96 239 0.0 2.0 0.00 0.00 0.00 52 1016.4
20260903174557 95 290 0.0 2.0 0.00 0.00 0.00 56 1016.5
20260903173040 95 355 0.0 3.0 0.00 0.00 0.00 63 1016.5
20260903171537 95 190 0.0 3.0 0.00 0.00 0.00 55 1016.8
20260903170055 95 190 0.0 2.0 0.00 0.00 0.00 53 1017.0
20260903164540 94 190 0.0 2.0 0.00 0.00 0.00 62 1017.2
20260903163032 94 190 0.0 2.0 0.00 0.00 0.00 63 1017.3
20260903161529 93 190 0.0 1.0 0.00 0.00 0.00 60 1017.3
20260903160029 93 190 0.0 2.0 0.00 0.00 0.00 61 1017.5
20260903154522 92 92 0.0 2.0 0.00 0.00 0.00 66 1017.6
20260903153020 91 254 0.0 2.0 0.00 0.00 0.00 65 1017.6
20260903151517 90 271 0.0 2.0 0.00 0.00 0.00 68 1017.6
20260903150022 90 238 0.0 2.0 0.00 0.00 0.00 71 1017.7
20260903144510 88 238 0.0 2.0 0.00 0.00 0.00 72 1017.6
20260903143006 87 236 0.0 3.0 0.00 0.00 0.00 73 1017.7
20260903141501 86 284 0.0 0.0 0.00 0.00 0.00 76 1017.7
20260903140058 84 229 0.0 2.0 0.00 0.00 0.00 80 1017.6
20260903134558 82 229 0.0 2.0 0.00 0.00 0.00 83 1017.5
20260903133053 80 212 0.0 1.0 0.00 0.00 0.00 86 1017.6
20260903131553 78 184 0.0 1.0 0.00 0.00 0.00 90 1017.6
20260903130039 76 184 0.0 2.0 0.00 0.00 0.00 93 1017.6
20260903124540 75 178 0.0 0.0 0.00 0.00 0.00 95 1017.6
20260903123037 74 178 0.0 0.0 0.00 0.00 0.00 96 1017.6
20260903121634 73 178 0.0 0.0 0.00 0.00 0.00 96 1017.6
20260903120034 72 178 0.0 0.0 0.00 0.00 0.00 96 1017.7
20260903114533 72 178 0.0 0.0 0.00 0.00 0.00 97 1017.6
20260903113032 72 178 0.0 0.0 0.00 0.00 0.00 96 1017.3
20260903111553 72 178 0.0 0.0 0.00 0.00 0.00 97 1017.1
20260903110030 72 178 0.0 0.0 0.00 0.00 0.00 97 1017.1
20260903104528 72 178 0.0 0.0 0.00 0.00 0.00 96 1016.8
20260903103027 72 178 0.0 1.0 0.00 0.00 0.00 97 1016.7